Previsão horária em Almansa

Hoje, 21 Janeiro, Quinta-feira

Tempo Temperatura Precipitação Vento Pressão Humidade
00:00 +6°C° 0 mm 5 m/s 699 mmHg 80%
01:00 +6°C° 0 mm 5 m/s 699 mmHg 81%
02:00 +7°C° 0 mm 6 m/s 699 mmHg 82%
03:00 +7°C° 0 mm 6 m/s 699 mmHg 83%
04:00 +5°C° 0 mm 6 m/s 699 mmHg 85%
05:00 +5°C° 0 mm 6 m/s 700 mmHg 86%
06:00 +5°C° 0 mm 6 m/s 700 mmHg 88%
07:00 +6°C° 0 mm 7 m/s 700 mmHg 85%
08:00 +6°C° 0 mm 8 m/s 701 mmHg 83%
09:00 +7°C° 0 mm 9 m/s 701 mmHg 80%
10:00 +8°C° 0 mm 10 m/s 701 mmHg 73%
11:00 +9°C° 0 mm 11 m/s 702 mmHg 67%
12:00 +10°C° 0 mm 12 m/s 702 mmHg 61%
13:00 +10°C° 0 mm 12 m/s 701 mmHg 62%
14:00 +9°C° 0 mm 12 m/s 701 mmHg 64%
15:00 +9°C° 0 mm 11 m/s 700 mmHg 65%
16:00 +8°C° 0 mm 10 m/s 700 mmHg 68%
17:00 +8°C° 0 mm 9 m/s 700 mmHg 71%
18:00 +8°C° 0 mm 7 m/s 700 mmHg 75%
19:00 +8°C° 0 mm 7 m/s 700 mmHg 76%
20:00 +8°C° 0 mm 7 m/s 700 mmHg 77%
21:00 +8°C° 0 mm 7 m/s 700 mmHg 79%
22:00 +8°C° 0 mm 7 m/s 700 mmHg 79%
23:00 +8°C° 0 mm 6 m/s 700 mmHg 79%

Amanhã, 22 Janeiro, Sexta-feira

Tempo Temperatura Precipitação Vento Pressão Humidade
00:00 +8°C° 0 mm 6 m/s 699 mmHg 79%
01:00 +8°C° 0 mm 6 m/s 699 mmHg 80%
02:00 +8°C° 0 mm 6 m/s 698 mmHg 80%
03:00 +8°C° 0 mm 6 m/s 697 mmHg 80%
04:00 +8°C° 0 mm 6 m/s 697 mmHg 80%
05:00 +8°C° 0 mm 7 m/s 696 mmHg 80%
06:00 +8°C° 0 mm 7 m/s 696 mmHg 80%
07:00 +8°C° 0.1 mm 10 m/s 696 mmHg 78%
08:00 +8°C° 0.1 mm 13 m/s 696 mmHg 75%
09:00 +9°C° 0.1 mm 16 m/s 696 mmHg 73%
10:00 +9°C° 0.1 mm 16 m/s 696 mmHg 65%
11:00 +9°C° 0.1 mm 17 m/s 696 mmHg 58%
12:00 +9°C° 0.1 mm 17 m/s 696 mmHg 51%
13:00 +7°C° 0.1 mm 17 m/s 696 mmHg 57%
14:00 +6°C° 0.1 mm 17 m/s 696 mmHg 64%
15:00 +5°C° 0.1 mm 16 m/s 696 mmHg 70%
16:00 +5°C° 0.2 mm 15 m/s 697 mmHg 70%
17:00 +4°C° 0.2 mm 14 m/s 697 mmHg 71%
18:00 +4°C° 0.2 mm 13 m/s 698 mmHg 71%
19:00 +4°C° 0 mm 14 m/s 698 mmHg 72%
20:00 +3°C° 0 mm 14 m/s 699 mmHg 74%
21:00 +2°C° 0 mm 15 m/s 699 mmHg 75%
22:00 +3°C° 0 mm 13 m/s 699 mmHg 76%
23:00 +2°C° 0 mm 12 m/s 700 mmHg 76%

Depois de amanhã, 23 Janeiro, Sábado

Tempo Temperatura Precipitação Vento Pressão Humidade
00:00 +2°C° 0 mm 11 m/s 700 mmHg 77%
01:00 +2°C° 0 mm 10 m/s 700 mmHg 77%
02:00 +1°C° 0 mm 10 m/s 700 mmHg 77%
03:00 +1°C° 0 mm 9 m/s 700 mmHg 77%
04:00 +1°C° 0 mm 10 m/s 700 mmHg 76%
05:00 +1°C° 0 mm 11 m/s 700 mmHg 75%
06:00 +2°C° 0 mm 11 m/s 700 mmHg 74%
07:00 +2°C° 0 mm 12 m/s 700 mmHg 73%
08:00 +3°C° 0 mm 12 m/s 700 mmHg 71%
09:00 +3°C° 0 mm 13 m/s 700 mmHg 70%
10:00 +4°C° 0 mm 14 m/s 700 mmHg 67%
11:00 +5°C° 0 mm 14 m/s 700 mmHg 64%
12:00 +6°C° 0 mm 15 m/s 700 mmHg 61%
13:00 +6°C° 0 mm 14 m/s 700 mmHg 62%
14:00 +7°C° 0 mm 13 m/s 699 mmHg 64%
15:00 +7°C° 0 mm 13 m/s 699 mmHg 65%
16:00 +6°C° 0 mm 11 m/s 698 mmHg 69%
17:00 +6°C° 0 mm 10 m/s 698 mmHg 72%
18:00 +5°C° 0 mm 8 m/s 697 mmHg 75%
19:00 +5°C° 0 mm 8 m/s 697 mmHg 76%
20:00 +5°C° 0 mm 8 m/s 696 mmHg 77%
21:00 +5°C° 0 mm 8 m/s 696 mmHg 78%
22:00 +6°C° 0 mm 9 m/s 695 mmHg 79%
23:00 +6°C° 0 mm 10 m/s 695 mmHg 80%

24 Janeiro, Domingo

Tempo Temperatura Precipitação Vento Pressão Humidade
00:00 +7°C° 0 mm 11 m/s 695 mmHg 80%
01:00 +7°C° 0.1 mm 12 m/s 694 mmHg 80%
02:00 +8°C° 0.1 mm 13 m/s 694 mmHg 80%
03:00 +9°C° 0.1 mm 15 m/s 694 mmHg 80%
04:00 +7°C° 0 mm 16 m/s 694 mmHg 77%
05:00 +6°C° 0 mm 17 m/s 695 mmHg 73%
06:00 +5°C° 0 mm 18 m/s 695 mmHg 70%
07:00 +5°C° 0 mm 18 m/s 696 mmHg 70%
08:00 +5°C° 0 mm 17 m/s 697 mmHg 69%
09:00 +5°C° 0 mm 16 m/s 698 mmHg 69%
10:00 +6°C° 0 mm 15 m/s 698 mmHg 64%
11:00 +8°C° 0 mm 14 m/s 698 mmHg 60%
12:00 +8°C° 0 mm 12 m/s 699 mmHg 55%
13:00 +8°C° 0 mm 12 m/s 699 mmHg 57%
14:00 +8°C° 0 mm 11 m/s 699 mmHg 59%
15:00 +8°C° 0 mm 10 m/s 699 mmHg 60%
16:00 +7°C° 0 mm 9 m/s 699 mmHg 64%
17:00 +7°C° 0 mm 9 m/s 699 mmHg 67%
18:00 +6°C° 0 mm 9 m/s 699 mmHg 70%
19:00 +6°C° 0 mm 8 m/s 700 mmHg 71%
20:00 +5°C° 0 mm 8 m/s 700 mmHg 73%
21:00 +5°C° 0 mm 8 m/s 701 mmHg 74%
22:00 +5°C° 0 mm 8 m/s 701 mmHg 75%
23:00 +5°C° 0 mm 8 m/s 701 mmHg 77%

25 Janeiro, Segunda-feira

Tempo Temperatura Precipitação Vento Pressão Humidade
00:00 +5°C° 0 mm 8 m/s 701 mmHg 78%
01:00 +5°C° 0 mm 8 m/s 701 mmHg 79%
02:00 +5°C° 0 mm 8 m/s 701 mmHg 80%
03:00 +4°C° 0 mm 7 m/s 701 mmHg 80%
04:00 +4°C° 0 mm 6 m/s 701 mmHg 82%
05:00 +5°C° 0 mm 5 m/s 701 mmHg 83%
06:00 +5°C° 0 mm 5 m/s 701 mmHg 85%
07:00 +5°C° 0 mm 5 m/s 702 mmHg 83%
08:00 +5°C° 0 mm 5 m/s 703 mmHg 81%
09:00 +5°C° 0 mm 6 m/s 703 mmHg 80%
10:00 +7°C° 0 mm 6 m/s 703 mmHg 74%
11:00 +8°C° 0 mm 6 m/s 704 mmHg 68%
12:00 +9°C° 0 mm 6 m/s 704 mmHg 63%
13:00 +10°C° 0 mm 6 m/s 704 mmHg 62%
14:00 +10°C° 0 mm 6 m/s 703 mmHg 61%
15:00 +10°C° 0 mm 6 m/s 703 mmHg 60%
16:00 +9°C° 0 mm 5 m/s 703 mmHg 66%
17:00 +8°C° 0 mm 5 m/s 704 mmHg 72%
18:00 +7°C° 0 mm 4 m/s 704 mmHg 78%
19:00 +6°C° 0 mm 4 m/s 704 mmHg 80%
20:00 +6°C° 0 mm 4 m/s 704 mmHg 83%
21:00 +5°C° 0 mm 4 m/s 705 mmHg 86%
22:00 +5°C° 0 mm 4 m/s 705 mmHg 87%
23:00 +5°C° 0 mm 4 m/s 705 mmHg 88%

26 Janeiro, Terça-feira

Tempo Temperatura Precipitação Vento Pressão Humidade
00:00 +5°C° 0 mm 4 m/s 705 mmHg 88%
01:00 +5°C° 0 mm 4 m/s 705 mmHg 89%
02:00 +5°C° 0 mm 4 m/s 705 mmHg 90%
03:00 +5°C° 0 mm 4 m/s 705 mmHg 91%
04:00 +5°C° 0 mm 4 m/s 705 mmHg 91%
05:00 +5°C° 0 mm 4 m/s 705 mmHg 91%
06:00 +6°C° 0 mm 4 m/s 705 mmHg 91%
07:00 +7°C° 0 mm 5 m/s 706 mmHg 89%
08:00 +8°C° 0 mm 5 m/s 706 mmHg 87%
09:00 +9°C° 0 mm 6 m/s 707 mmHg 85%
10:00 +10°C° 0 mm 7 m/s 707 mmHg 79%
11:00 +11°C° 0 mm 8 m/s 707 mmHg 73%
12:00 +12°C° 0 mm 9 m/s 707 mmHg 68%
13:00 +13°C° 0 mm 9 m/s 707 mmHg 67%
14:00 +13°C° 0 mm 10 m/s 706 mmHg 66%
15:00 +13°C° 0 mm 10 m/s 706 mmHg 66%
16:00 +12°C° 0 mm 10 m/s 706 mmHg 70%
17:00 +11°C° 0 mm 10 m/s 706 mmHg 73%
18:00 +11°C° 0 mm 9 m/s 706 mmHg 77%
19:00 +10°C° 0 mm 9 m/s 706 mmHg 80%
20:00 +10°C° 0 mm 8 m/s 707 mmHg 83%
21:00 +10°C° 0 mm 8 m/s 707 mmHg 85%
22:00 +10°C° 0 mm 8 m/s 707 mmHg 87%
23:00 +10°C° 0 mm 7 m/s 707 mmHg 88%
Mostrar mais

Necessitamos do seu Consentimento

A Meteoprog e os seus Fornecedores de Serviços podem armazenar e aceder a dados pessoais como cookies, identificadores do dispositivo ou outras tecnologias semelhantes existentes no seu dispositivo e processar estes dados para personalizar conteúdos e anúncios, assim como funcionalidades nas redes sociais e análise de tráfego.

  • Armazenar e/ou aceder a informações no seu dispositivo

    Os cookies, identificadores do dispositivo ou outras informações podem ser armazenados ou acedidos no seu dispositivo, para os fins acima indicados.

  • Anúncios e conteúdos personalizados, medição de anúncios e conteúdos, dados sobre o público-alvo e desenvolvimento de produtos

    Os anúncios e os conteúdos podem ser personalizados com base num perfil. Podem ser adicionados dados adicionais para uma maior personalização dos anúncios e dos conteúdos. A eficácia dos anúncios e dos conteúdos pode ser medida. Podem ser obtidas informações sobre o público que visualizou os anúncios e os conteúdos. Estes dados podem ser usados para desenvolver ou melhorar sistemas, softwares ou a experiência do utilizador.

Ao clicar em "Eu concordo”, permitirá o uso de cookies, identificadores do dispositivo e web beacons mencionados ou outras tecnologias semelhantes. As configurações do navegador do seu dispositivo podem ser alteradas.

Para certos fins, podem ser invocados interesses legítimos ao invés de consentimento. Pode ler mais informação sobre este assunto na nossa Política de Privacidade e Cookies.